Simultaneous Nadir Overpasses (SNOs) Predictions

Prediction of SNOs between METOP-A and NOAA-19 Satellite Orbit:

Table of predicted SNOs for the next 14.0 days since TLE Epoch: 4/6/2018
Index Date (METOP-A) Time (METOP-A) Lat,Lon (METOP-A) SZA (METOP-A ) Date (NOAA-19) Time (NOAA-19) Lat,Lon (NOAA-19) SZA (NOAA-19 ) Distance(km) Time Diff (sec)
1 04/06/2018 23:48:02 -78.66, 12.68 107.99 04/06/2018 23:46:57 -78.67, 8.68 108.08 87.54 65
2 04/07/2018 00:38:50 78.34, 178.20 71.64 04/07/2018 00:37:54 78.33, 178.16 71.62 1.39 56
3 04/07/2018 01:29:32 -78.33, -14.57 108.40 04/07/2018 01:28:49 -78.35, -14.64 108.39 2.73 43
4 04/07/2018 02:20:12 78.32, 152.74 71.59 04/07/2018 02:19:55 78.33, 152.71 71.59 0.78 17
5 04/07/2018 03:10:54 -78.31, -40.02 108.45 04/07/2018 03:10:49 -78.30, -39.86 108.45 3.69 5
6 04/07/2018 04:01:34 78.30, 127.29 71.54 04/07/2018 04:01:56 78.32, 127.26 71.55 1.72 22
7 04/07/2018 04:52:15 -78.32, -65.26 108.45 04/07/2018 04:52:50 -78.29, -65.31 108.48 3.80 35
8 04/07/2018 05:42:56 78.28, 101.84 71.49 04/07/2018 05:43:57 78.31, 101.81 71.52 2.99 61
9 04/07/2018 06:33:37 -78.30, -90.71 108.50 04/07/2018 06:34:51 -78.28, -90.76 108.52 2.55 74
10 04/17/2018 19:57:07 -78.59, 69.95 111.99 04/17/2018 19:55:58 -78.59, 67.35 112.08 57.05 69
11 04/17/2018 20:47:52 78.38,-123.93 67.75 04/17/2018 20:46:57 78.36,-123.93 67.73 2.00 55
12 04/17/2018 21:38:34 -78.38, 43.37 112.27 04/17/2018 21:37:53 -78.37, 43.31 112.28 1.65 41
13 04/17/2018 22:29:14 78.36,-149.39 67.71 04/17/2018 22:28:58 78.36,-149.38 67.70 0.57 16
14 04/17/2018 23:19:56 -78.36, 17.92 112.32 04/17/2018 23:19:54 -78.36, 17.86 112.32 1.21 2
15 04/18/2018 00:10:36 78.34,-174.84 67.66 04/18/2018 00:10:59 78.35,-174.84 67.67 0.86 23
16 04/18/2018 01:01:18 -78.34, -7.54 112.36 04/18/2018 01:01:55 -78.35, -7.59 112.35 1.99 37
17 04/18/2018 01:51:58 78.32, 159.71 67.61 04/18/2018 01:53:00 78.34, 159.71 67.64 2.30 62




NCC Satellite Simultaneous Nadir Overpasses (SNOs) Prediction Service
